This demonstration page uses our WeatherBlox Daily Observations layout. Learn more.

Left ArrowRight Arrow

Hourly Observations for February 4, 2019

Temp ( °F °C ) Dew Point ( °F °C ) Humidity (%) Winds ( mph kmh ) Pressure ( in mb ) Visibility ( mi km ) Precip ( " mm )
12:16 am 00:16 Clear 45 7 45 7 100 100 S 7 11 29.94 1014 10 16 N/A
12:35 am 00:35 Clear 45 7 43 6 93 93 S 7 11 29.94 1014 10 16 N/A
12:56 am 00:56 Clear 45 7 45 7 100 100 S 8 13 29.94 1014 10 16 N/A
1:15 am 01:15 Clear 45 7 45 7 100 100 S 8 13 29.94 1014 10 16 N/A
1:35 am 01:35 Clear 45 7 45 7 100 100 S 8 13 29.93 1014 10 16 N/A
1:56 am 01:56 Clear 45 7 45 7 100 100 S 7 11 29.93 1014 10 16 N/A
2:15 am 02:15 Clear 45 7 45 7 100 100 S 7 11 29.93 1014 10 16 N/A
2:35 am 02:35 Clear 45 7 45 7 100 100 S 6 9 29.92 1013 10 16 N/A
2:56 am 02:56 Clear 45 7 45 7 100 100 S 7 11 29.92 1013 10 16 N/A
3:15 am 03:15 Clear 45 7 45 7 100 100 S 8 13 29.92 1013 10 16 N/A
3:35 am 03:35 Clear 45 7 45 7 100 100 S 8 13 29.92 1013 10 16 N/A
3:56 am 03:56 Clear 45 7 45 7 100 100 S 9 15 29.91 1013 10 16 N/A
4:15 am 04:15 Clear 45 7 45 7 100 100 S 9 15 29.91 1013 10 16 N/A
4:36 am 04:36 Clear 43 6 43 6 100 100 S 10 17 29.90 1013 10 16 N/A
4:56 am 04:56 Clear 45 7 45 7 100 100 S 9 15 29.91 1013 10 16 N/A
5:15 am 05:15 Clear 43 6 43 6 100 100 S 9 15 29.90 1013 10 16 N/A
5:36 am 05:36 Clear 43 6 43 6 100 100 S 9 15 29.90 1013 10 16 N/A
5:56 am 05:56 Clear 43 6 43 6 100 100 S 9 15 29.90 1013 10 16 N/A
6:15 am 06:15 Partly Cloudy 45 7 45 7 100 100 S 9 15 29.90 1013 10 16 N/A
6:36 am 06:36 Mostly Cloudy 43 6 43 6 100 100 S 10 17 29.90 1013 10 16 N/A
6:55 am 06:55 Mostly Cloudy 45 7 45 7 100 100 S 10 17 29.90 1013 10 16 N/A
7:15 am 07:15 Cloudy 45 7 45 7 100 100 S 9 15 29.89 1012 10 16 N/A
7:36 am 07:36 Cloudy 45 7 45 7 100 100 S 10 17 29.90 1013 10 16 N/A
7:55 am 07:55 Cloudy 45 7 45 7 100 100 S 9 15 29.89 1012 10 16 N/A
8:15 am 08:15 Cloudy 45 7 45 7 100 100 S 10 17 29.89 1012 10 16 N/A
8:36 am 08:36 Cloudy 45 7 45 7 100 100 S 12 19 29.89 1012 10 16 N/A
8:55 am 08:55 Cloudy 45 7 45 7 100 100 S 12 19 29.88 1012 10 16 N/A
9:16 am 09:16 Cloudy 46 8 46 8 100 100 S 12 19 29.88 1012 10 16 N/A
9:35 am 09:35 Cloudy 46 8 46 8 100 100 S 12 19 29.88 1012 10 16 N/A
9:55 am 09:55 Mostly Cloudy 46 8 46 8 100 100 S 12 19 29.87 1011 10 16 N/A
10:16 am 10:16 Mostly Cloudy 48 9 48 9 100 100 S 12 19 29.86 1011 10 16 N/A
10:36 am 10:36 Cloudy 50 10 50 10 100 100 S 14 22 29.87 1012 10 16 N/A
10:55 am 10:55 Cloudy 48 9 48 9 100 100 S 13 20 29.86 1011 10 16 N/A
11:16 am 11:16 Cloudy 48 9 48 9 100 100 S 14 22 29.87 1012 5 8 N/A
11:35 am 11:35 Cloudy 48 9 48 9 100 100 S 12 19 29.86 1011 5 8 N/A
11:55 am 11:55 Cloudy 50 10 50 10 100 100 S 12 19 29.86 1011 10 16 N/A
12:16 pm 12:16 Cloudy 50 10 50 10 100 100 S 12 19 29.86 1011 10 16 N/A
12:35 pm 12:35 Cloudy 50 10 50 10 100 100 S 10 17 29.85 1011 5 8 N/A
12:55 pm 12:55 Cloudy 50 10 50 10 100 100 S 12 19 29.85 1011 10 16 N/A
1:16 pm 13:16 Cloudy 50 10 50 10 100 100 S 10 17 29.85 1011 7 11 N/A
1:35 pm 13:35 Cloudy 50 10 50 10 100 100 S 10 17 29.84 1011 5 8 N/A
1:55 pm 13:55 Cloudy 50 10 50 10 100 100 S 12 19 29.82 1010 4 6 N/A
2:16 pm 14:16 Cloudy 50 10 50 10 100 100 S 12 19 29.82 1010 4 6 N/A
2:35 pm 14:35 Cloudy 50 10 50 10 100 100 S 9 15 29.82 1010 4 6 N/A
2:56 pm 14:56 Cloudy 50 10 50 10 100 100 S 10 17 29.82 1010 3 5 N/A
3:16 pm 15:16 Cloudy 50 10 50 10 100 100 S 9 15 29.81 1009 3 5 N/A
3:35 pm 15:35 Cloudy 50 10 50 10 100 100 S 9 15 29.81 1009 1 2 N/A
3:56 pm 15:56 Cloudy 50 10 50 10 100 100 S 10 17 29.81 1009 1 2 N/A
4:16 pm 16:16 Cloudy 50 10 50 10 100 100 S 9 15 29.81 1009 1 1 N/A
4:35 pm 16:35 Cloudy 50 10 50 10 100 100 S 9 15 29.82 1010 1 1 N/A
4:56 pm 16:56 Cloudy 50 10 50 10 100 100 S 9 15 29.82 1010 0 0 N/A
5:15 pm 17:15 Cloudy 50 10 50 10 100 100 S 9 15 29.83 1010 0 0 N/A
5:35 pm 17:35 Cloudy 50 10 50 10 100 100 S 8 13 29.83 1010 0 0 N/A
5:56 pm 17:56 Cloudy 50 10 50 10 100 100 S 9 15 29.83 1010 1 1 N/A
6:15 pm 18:15 Cloudy 50 10 50 10 100 100 S 8 13 29.83 1010 1 1 N/A
6:35 pm 18:35 Cloudy 50 10 50 10 100 100 SSW 8 13 29.84 1011 1 1 N/A
7:16 pm 19:16 Cloudy 48 9 48 9 100 100 S 7 11 29.85 1011 0 0 N/A
7:35 pm 19:35 Cloudy 50 10 50 10 100 100 SSW 6 9 29.85 1011 0 0 N/A
7:56 pm 19:56 Cloudy 50 10 50 10 100 100 SSW 7 11 29.86 1011 1 1 N/A
8:15 pm 20:15 Cloudy 50 10 50 10 100 100 SSW 7 11 29.86 1011 1 1 N/A
8:35 pm 20:35 Cloudy 50 10 50 10 100 100 SSW 8 13 29.86 1011 1 1 N/A
8:56 pm 20:56 Cloudy 50 10 50 10 100 100 SSW 7 11 29.86 1011 1 1 N/A
9:15 pm 21:15 Cloudy 50 10 50 10 100 100 SSW 6 9 29.87 1012 1 1 N/A
9:35 pm 21:35 Cloudy 50 10 50 10 100 100 SSW 6 9 29.88 1012 0 0 N/A
9:56 pm 21:56 Cloudy 48 9 48 9 100 100 SSW 5 7 29.88 1012 0 0 N/A
10:15 pm 22:15 Cloudy 48 9 48 9 100 100 SW 3 6 29.89 1012 0 0 N/A
10:35 pm 22:35 Cloudy 48 9 48 9 100 100 WSW 3 6 29.90 1013 0 0 N/A
10:56 pm 22:56 Cloudy 48 9 48 9 100 100 W 6 9 29.90 1013 1 1 N/A
11:15 pm 23:15 Cloudy 50 10 50 10 100 100 NW 7 11 29.91 1013 1 2 N/A
11:36 pm 23:36 Cloudy 48 9 48 9 100 100 WNW 9 15 29.92 1013 2 3 N/A
11:56 pm 23:56 Cloudy 46 8 46 8 100 100 NNW 10 17 29.94 1014 2 3 N/A

Powered by AerisWeather